H-2A DEB (43068 NORAD) Tracking and Keplerian Element Data

This shows tracking and keplerian element data for the satellite.

Feedback or suggestion? Click here.




ElementValue
Catalog43068
NameH-2A DEB
Epoch Orbit393
Epoch Day18.66846467
Epoch Year2018
RAAN92.8681
Inclination98.0584
Eccentricity0.023803
Argument of Perigee43.4952
Mean Anonmoly318.4768
Mean Motion14.80493846
Decay Rate8.22E-06
L11 43068U 17082D 18018.66846467 .00000822 00000-0 71773-4 0 9995
L22 43068 98.0584 92.8681 0238030 43.4952 318.4768 14.80493846 3933

Live tracking and technical data element details for H-2A DEB (NORAD 43068). H-2A DEB can be tracked NOW for your location showing map with azimuth and elevation plus other details from your city location.

Track the satellite on the map from your city or location and see movement details for azimuth, elevation, latitude, longitude, range, height, and movement on the map or in text.







IsCatalogInMostPopularTable: catalog: 43068, numindb: 110
Update: records affected: 1



GetName: 43068 H-2A DEB

Hit Count: updated at: Mon, 19 Nov 2018 12:14:42 GMT